Weather History for Savanna, IL

Change the Weather History Date:

Tuesday, October 9, 2012

  Actual Average (KCWI) Record (KCWI)
Temperature  
Mean Temperature 54 °F -  
Max Temperature 63 °F 64 °F 82 °F (1973)
Min Temperature 43 °F 44 °F 24 °F (2000)
Degree Days  
Heating Degree Days 12    
Growing Degree Days 4 (Base 50)    
Moisture  
Dew Point 38 °F    
Average Humidity 62    
Maximum Humidity 91    
Minimum Humidity 39    
Precipitation  
Precipitation 0.05 in - - ()
Sea Level Pressure  
Sea Level Pressure 29.89 in    
Wind  
Wind Speed 10 mph (SW)    
Max Wind Speed 22 mph    
Max Gust Speed 30 mph    
Visibility 10 miles    
Events Rain    
Averages and records for this station are not official NWS values.
T = Trace of Precipitation, MM = Missing Value Source: NWS Daily Summary

Daily Weather History Graph

Daily Weather History Graph

Search for Another Location

Airport:

Trip Planner

Search our weather history database for the weather conditions in past years. The results will help you decide how hot, cold, wet, or windy it might be!

Date:

Astronomy

Oct. 09, 2012 Rise Set
Actual Time 7:06 AM CDT 6:27 PM CDT
Civil Twilight 6:38 AM CDT 6:55 PM CDT
Nautical Twilight 6:06 AM CDT 7:27 PM CDT
Astronomical Twilight 5:33 AM CDT 8:00 PM CDT
Moon 12:37 AM CDT (10/9) 3:00 PM CDT (10/9)
Length of Visible Light 12h 16m
Length of Day
11h 20m
Last Quarter, 36% of the Moon is Illuminated
Oct 9
Last Quarter
Oct 15
New
Oct 21
First Quarter
Oct 29
Full
Nov 6
Last Quarter

Hourly Weather History & Observations

Time (CDT) Temp. Windchill Dew Point Humidity Pressure Visibility Wind Dir Wind Speed Gust Speed Precip Events Conditions
12:15 AM 51.3 °F - 32.9 °F 50% 29.93 in 10.0 mi South 11.5 mph - N/A   Scattered Clouds
12:35 AM 50.9 °F - 32.9 °F 50% 29.93 in 10.0 mi South 10.4 mph - N/A   Clear
12:55 AM 50.9 °F - 33.1 °F 51% 29.93 in 10.0 mi South 8.1 mph - N/A   Scattered Clouds
1:15 AM 50.9 °F - 33.1 °F 51% 29.93 in 10.0 mi South 8.1 mph - N/A   Scattered Clouds
1:35 AM 49.8 °F - 32.9 °F 52% 29.93 in 10.0 mi SSE 8.1 mph - N/A   Clear
1:55 AM 50.0 °F - 32.9 °F 52% 29.93 in 10.0 mi SSE 6.9 mph - N/A   Clear
2:15 AM 49.3 °F - 33.1 °F 54% 29.92 in 10.0 mi SSE 6.9 mph - N/A   Clear
2:35 AM 48.2 °F - 33.4 °F 57% 29.91 in 10.0 mi SE 5.8 mph - N/A   Scattered Clouds
2:55 AM 48.2 °F - 33.8 °F 58% 29.91 in 10.0 mi SSE 6.9 mph - N/A   Mostly Cloudy
3:15 AM 48.7 °F - 34.0 °F 57% 29.89 in 10.0 mi SSE 5.8 mph - N/A   Mostly Cloudy
3:35 AM 49.3 °F - 34.2 °F 56% 29.89 in 10.0 mi South 8.1 mph - N/A   Scattered Clouds
3:55 AM 49.1 °F - 34.2 °F 56% 29.90 in 10.0 mi South 6.9 mph - N/A   Scattered Clouds
4:15 AM 46.4 °F 43.5 °F 34.2 °F 62% 29.90 in 10.0 mi South 5.8 mph - N/A   Clear
4:35 AM 48.4 °F - 35.1 °F 60% 29.89 in 10.0 mi South 6.9 mph - N/A   Clear
4:55 AM 50.2 °F - 35.8 °F 58% 29.89 in 10.0 mi South 12.7 mph - N/A   Clear
5:15 AM 51.8 °F - 36.1 °F 55% 29.89 in 10.0 mi South 11.5 mph - N/A   Clear
5:35 AM 52.0 °F - 36.1 °F 55% 29.89 in 10.0 mi South 11.5 mph - N/A   Scattered Clouds
5:55 AM 51.8 °F - 36.5 °F 56% 29.89 in 10.0 mi South 11.5 mph - N/A   Scattered Clouds
6:15 AM 50.9 °F - 36.1 °F 57% 29.88 in 10.0 mi SSE 6.9 mph - N/A   Mostly Cloudy
6:35 AM 48.7 °F - 35.8 °F 61% 29.88 in 10.0 mi SSE 3.5 mph - N/A   Scattered Clouds
6:55 AM 48.9 °F - 36.3 °F 62% 29.88 in 10.0 mi SSE 6.9 mph - N/A   Clear
7:15 AM 46.6 °F - 35.6 °F 66% 29.88 in 10.0 mi SSE 8.1 mph - N/A   Clear
7:35 AM 47.5 °F - 35.8 °F 64% 29.88 in 10.0 mi SSE 9.2 mph - N/A   Clear
7:55 AM 47.8 °F - 36.1 °F 64% 29.88 in 10.0 mi SSE 9.2 mph - N/A   Clear
8:15 AM 48.2 °F - 36.7 °F 64% 29.88 in 10.0 mi South 10.4 mph - N/A   Scattered Clouds
8:35 AM 49.6 °F - 37.0 °F 62% 29.89 in 10.0 mi South 9.2 mph - N/A   Mostly Cloudy
8:55 AM 50.0 °F - 37.9 °F 63% 29.88 in 10.0 mi South 10.4 mph - N/A   Mostly Cloudy
9:15 AM 51.3 °F - 38.3 °F 61% 29.88 in 10.0 mi South 12.7 mph 16.1 mph N/A   Overcast
9:35 AM 51.1 °F - 38.5 °F 62% 29.88 in 10.0 mi South 8.1 mph - N/A   Mostly Cloudy
9:55 AM 52.3 °F - 39.2 °F 61% 29.87 in 10.0 mi South 8.1 mph - N/A   Scattered Clouds
10:15 AM 55.6 °F - 38.8 °F 53% 29.87 in 10.0 mi South 11.5 mph 17.3 mph N/A   Scattered Clouds
10:35 AM 55.8 °F - 38.8 °F 53% 29.86 in 10.0 mi South 9.2 mph - N/A   Mostly Cloudy
10:55 AM 56.7 °F - 38.8 °F 51% 29.87 in 10.0 mi SSW 13.8 mph 18.4 mph N/A   Mostly Cloudy
11:15 AM 59.0 °F - 38.7 °F 47% 29.86 in 10.0 mi SSW 11.5 mph 20.7 mph N/A   Scattered Clouds
11:35 AM 59.9 °F - 38.7 °F 45% 29.86 in 10.0 mi SW 12.7 mph 18.4 mph N/A   Scattered Clouds
11:55 AM 59.7 °F - 38.7 °F 46% 29.86 in 10.0 mi SW 10.4 mph 16.1 mph N/A   Clear
12:15 PM 60.6 °F - 38.3 °F 44% 29.86 in 10.0 mi SW 10.4 mph - N/A   Clear
12:35 PM 61.7 °F - 38.8 °F 43% 29.84 in 10.0 mi SW 11.5 mph - N/A   Clear
12:55 PM 62.4 °F - 38.7 °F 41% 29.83 in 10.0 mi SSW 12.7 mph - N/A   Clear
1:15 PM 61.7 °F - 37.6 °F 41% 29.82 in 10.0 mi SSW 13.8 mph - N/A   Clear
1:35 PM 61.7 °F - 38.3 °F 42% 29.82 in 10.0 mi SW 10.4 mph - N/A   Clear
1:55 PM 61.7 °F - 38.5 °F 42% 29.82 in 10.0 mi SW 11.5 mph - N/A   Clear
2:15 PM 62.8 °F - 37.9 °F 40% 29.82 in 10.0 mi SW 15.0 mph 19.6 mph N/A   Clear
2:35 PM 63.5 °F - 38.3 °F 39% 29.82 in 10.0 mi SW 16.1 mph 21.9 mph N/A   Clear
2:55 PM 63.7 °F - 38.5 °F 39% 29.81 in 10.0 mi SW 13.8 mph 18.4 mph N/A   Clear
3:15 PM 62.6 °F - 37.8 °F 40% 29.82 in 10.0 mi WSW 15.0 mph 21.9 mph N/A   Clear
3:35 PM 62.6 °F - 38.3 °F 41% 29.82 in 10.0 mi SW 11.5 mph 20.7 mph N/A   Scattered Clouds
3:55 PM 62.6 °F - 39.0 °F 42% 29.82 in 10.0 mi SW 11.5 mph 16.1 mph N/A   Mostly Cloudy
4:15 PM 61.5 °F - 39.7 °F 45% 29.83 in 10.0 mi WNW 15.0 mph 19.6 mph N/A   Overcast
4:35 PM 56.8 °F - 43.2 °F 60% 29.85 in 10.0 mi WNW 18.4 mph 24.2 mph N/A   Overcast
4:55 PM 54.0 °F - 41.7 °F 63% 29.86 in 10.0 mi NW 18.4 mph 25.3 mph N/A   Overcast
5:15 PM 51.6 °F - 39.2 °F 63% 29.88 in 10.0 mi NW 21.9 mph 28.8 mph N/A   Overcast
5:35 PM 50.4 °F - 39.6 °F 66% 29.88 in 10.0 mi WNW 18.4 mph 29.9 mph N/A   Overcast
5:55 PM 48.2 °F - 42.1 °F 79% 29.89 in 10.0 mi WNW 13.8 mph 21.9 mph N/A Rain Rain
6:15 PM 46.4 °F 41.5 °F 43.3 °F 89% 29.90 in 7.0 mi NW 10.4 mph - 0.01 in Rain Rain
6:35 PM 45.9 °F 42.9 °F 43.3 °F 91% 29.91 in 10.0 mi NW 5.8 mph - 0.03 in Rain Light Rain
6:55 PM 45.7 °F 41.0 °F 42.3 °F 88% 29.91 in 10.0 mi WNW 9.2 mph - 0.03 in Rain Light Rain
7:15 PM 45.5 °F 42.5 °F 41.9 °F 87% 29.91 in 10.0 mi WNW 5.8 mph - 0.01 in   Drizzle
7:35 PM 45.0 °F 41.2 °F 41.0 °F 86% 29.92 in 10.0 mi WNW 6.9 mph - 0.01 in   Drizzle
7:55 PM 44.8 °F 41.6 °F 40.8 °F 86% 29.92 in 10.0 mi West 5.8 mph - 0.01 in Rain Rain
8:15 PM 44.6 °F 40.7 °F 41.0 °F 87% 29.91 in 10.0 mi West 6.9 mph - 0.01 in Rain Light Rain
8:35 PM 44.6 °F 40.7 °F 41.2 °F 88% 29.92 in 10.0 mi WSW 6.9 mph - 0.01 in   Overcast
8:55 PM 44.8 °F 39.9 °F 41.5 °F 88% 29.93 in 10.0 mi WSW 9.2 mph - 0.01 in   Overcast
9:15 PM 44.8 °F 41.6 °F 41.7 °F 89% 29.93 in 10.0 mi West 5.8 mph - N/A   Overcast
9:35 PM 44.8 °F 40.4 °F 41.9 °F 90% 29.93 in 10.0 mi West 8.1 mph - N/A   Overcast
9:55 PM 44.8 °F 39.4 °F 41.9 °F 90% 29.94 in 10.0 mi West 10.4 mph - N/A   Mostly Cloudy
10:15 PM 45.0 °F 41.2 °F 41.9 °F 89% 29.94 in 10.0 mi West 6.9 mph - N/A   Clear
10:35 PM 45.0 °F 41.2 °F 41.4 °F 87% 29.94 in 10.0 mi West 6.9 mph - N/A   Clear
10:55 PM 44.8 °F 41.0 °F 41.0 °F 87% 29.95 in 10.0 mi West 6.9 mph - N/A   Clear
11:15 PM 44.2 °F 39.2 °F 40.5 °F 87% 29.95 in 10.0 mi West 9.2 mph - N/A   Clear
11:35 PM 44.1 °F 39.5 °F 39.9 °F 85% 29.95 in 10.0 mi West 8.1 mph - N/A   Clear
11:55 PM 43.9 °F 37.9 °F 38.3 °F 81% 29.96 in 10.0 mi WNW 11.5 mph 19.6 mph N/A   Clear